Hourly Data Report for October 06, 2017

All times are specified in Local Standard Time (LST). Add 1 hour to adjust for Daylight Saving Time where and when it is observed.

PORT HAWKESBURY
NOVA SCOTIA

45°39'24.000" N
61°22'05.000" W
114.90 m
8204495
71041
YPD

Download Data

Hourly Data (October 2017)
Hourly Data Report for October 6, 2017
Temp Definition
°C
Dew Point Temp Definition
°C
Rel Hum Definition
%
Wind Dir Definition
10's deg

Wind Spd Definition
km/h
Visibility Definition
km
Stn Press Definition
kPa
Hmdx Definition


Wind Chill Definition


Weather Definition


TIME
00:00 Legend Double Dagger 5.1 4.4 95 26 8 16.1 99.99     LegendNANA
01:00 Legend Double Dagger 7.2 6.8 97 22 4 16.1 99.96     LegendNANA
02:00 Legend Double Dagger 6.3 6.0 98 LegendMM 4 16.1 99.90     LegendNANA
03:00 Legend Double Dagger 6.4 6.3 99 19 4 14.5 99.91     LegendNANA
04:00 Legend Double Dagger 10.8 7.0 77 23 5 16.1 99.92     LegendNANA
05:00 Legend Double Dagger 13.6 7.1 65 19 13 16.1 99.93     LegendNANA
06:00 Legend Double Dagger 12.6 8.5 76 22 9 16.1 99.95     LegendNANA
07:00 Legend Double Dagger 13.3 8.6 73 25 18 16.1 99.98     LegendNANA
08:00 Legend Double Dagger 12.9 9.4 79 29 15 16.1 100.06     LegendNANA
09:00 Legend Double Dagger 14.4 10.5 77 29 17 16.1 100.09     LegendNANA
10:00 Legend Double Dagger 14.6 10.7 77 28 22 16.1 100.12     LegendNANA
11:00 Legend Double Dagger 15.4 9.3 67 30 21 16.1 100.12     LegendNANA
12:00 Legend Double Dagger 15.2 8.5 64 29 21 16.1 100.10     LegendNANA
13:00 Legend Double Dagger 15.1 9.4 69 31 13 16.1 100.10     LegendNANA
14:00 Legend Double Dagger 15.8 9.4 65 31 18 16.1 100.13     LegendNANA
15:00 Legend Double Dagger 14.9 7.8 62 29 18 16.1 100.15     LegendNANA
16:00 Legend Double Dagger 14.2 7.0 62 27 13 16.1 100.18     LegendNANA
17:00 Legend Double Dagger 12.8 7.7 71 27 5 16.1 100.18     LegendNANA
18:00 Legend Double Dagger 11.5 8.1 80   0 16.1 100.21     LegendNANA
19:00 Legend Double Dagger 8.0 6.6 91   0 16.1 100.26     LegendNANA
20:00 Legend Double Dagger 7.2 6.1 93 18 4 16.1 100.31     LegendNANA
21:00 Legend Double Dagger 10.2 6.7 79 26 9 16.1 100.36     LegendNANA
22:00 Legend Double Dagger 10.6 7.0 78 28 13 16.1 100.41     LegendNANA
23:00 Legend Double Dagger 10.0 7.3 83 29 11 16.1 100.48     LegendNANA

Notes on Data Quality.

Legend

  • E = Estimated
  • M = Missing
  • NA = Not Available
  • ‡ = Partner data that is not subject to review by the National Climate Archives
Date modified: